Address 0x49b7d085aab4125bc2c7ca390d66ae00f4805af5 1

 
Txn Hash Method
Block
From
To
Value [Txn Fee]
0x4033b33286e54ff6250586ac4e3dce4db409c89c9b3d99f75740898be6bb87acBury219856562021-11-30 19:59:511 hr 55 mins ago0x49b7d085aab4125bc2c7ca390d66ae00f4805af5OUT 0x6bc8f0128e4aaa0b3678b67bb93715fa70faf3d30 MATIC0.08832116
0x5c62428990a6a8bb27ac1ac8583fc5d3286ec00a0dffce962a8e3b8dac3b1a20Bury219844022021-11-30 19:14:342 hrs 41 mins ago0x49b7d085aab4125bc2c7ca390d66ae00f4805af5OUT 0x6bc8f0128e4aaa0b3678b67bb93715fa70faf3d30 MATIC0.2585072
0xfefbac790c28f934a2727cc12147331a44e0801659610d85bcb6079d06acf329Bury219643912021-11-30 6:42:0515 hrs 13 mins ago0x49b7d085aab4125bc2c7ca390d66ae00f4805af5OUT 0x6bc8f0128e4aaa0b3678b67bb93715fa70faf3d30 MATIC0.19620384
0x2f4ce0215e9880f3f13a62c7087dcf29d02e605423968e50427fb725e08254c8Bury219623782021-11-30 5:32:4716 hrs 22 mins ago0x49b7d085aab4125bc2c7ca390d66ae00f4805af5OUT 0x6bc8f0128e4aaa0b3678b67bb93715fa70faf3d30 MATIC0.0279654
0xe5d8b513bdb2bbd1d1d84dee1c5d549c87b4397255881ac51590d466be07adc6Bury219620332021-11-30 5:20:1016 hrs 35 mins ago0x49b7d085aab4125bc2c7ca390d66ae00f4805af5OUT 0x6bc8f0128e4aaa0b3678b67bb93715fa70faf3d30 MATIC0.01553924
0xa87aa57840a2845ce3f84d79a44fbdcfb93062bf894bb4b047e4795162b94c08Bury219620122021-11-30 5:18:4616 hrs 36 mins ago0x49b7d085aab4125bc2c7ca390d66ae00f4805af5OUT 0x6bc8f0128e4aaa0b3678b67bb93715fa70faf3d30 MATIC0.0283514
0xff75e5ed2fe1d24829ec8d838ec4a1f26e397cb2fada12d162c561e89910abdbBury219618672021-11-30 5:12:3616 hrs 43 mins ago0x49b7d085aab4125bc2c7ca390d66ae00f4805af5OUT 0x6bc8f0128e4aaa0b3678b67bb93715fa70faf3d30 MATIC0.06925568
0x99cc52435f578b57e07bebe82cb2639920941c2ca0813f06e6012b40e01398c0Bury219615602021-11-30 5:02:0216 hrs 53 mins ago0x49b7d085aab4125bc2c7ca390d66ae00f4805af5OUT 0x6bc8f0128e4aaa0b3678b67bb93715fa70faf3d30 MATIC0.00461308
0x620228681dbe026d84019b89e45fefba12af7bad927d8bc04adb9cdd8b570f8fBury219615192021-11-30 5:00:3616 hrs 55 mins ago0x49b7d085aab4125bc2c7ca390d66ae00f4805af5OUT 0x6bc8f0128e4aaa0b3678b67bb93715fa70faf3d30 MATIC0.01565124
0x7d88112310203dcdbd462de35be97bda14088bba08c2be2b28a820062b32d9c5Bury219614832021-11-30 4:59:2416 hrs 56 mins ago0x49b7d085aab4125bc2c7ca390d66ae00f4805af5OUT 0x6bc8f0128e4aaa0b3678b67bb93715fa70faf3d30 MATIC0.01233092
0x70c17464e2baf0492b74498b32d3f7c3052a35223f1df7385ad649bf04e4d32eBury219614482021-11-30 4:57:4016 hrs 58 mins ago0x49b7d085aab4125bc2c7ca390d66ae00f4805af5OUT 0x6bc8f0128e4aaa0b3678b67bb93715fa70faf3d30 MATIC0.00461308
0x57f1ad9868f70d401ba84030c55d4f7e769b7d3a9014e050e10466d48460c3acBury219614162021-11-30 4:56:3616 hrs 59 mins ago0x49b7d085aab4125bc2c7ca390d66ae00f4805af5OUT 0x6bc8f0128e4aaa0b3678b67bb93715fa70faf3d30 MATIC0.03445284
0xefda49a4b4a5913f719f38374b6f80b7386d548f5eda9e8c53ac39392d10da63Bury219611972021-11-30 4:44:4617 hrs 10 mins ago0x49b7d085aab4125bc2c7ca390d66ae00f4805af5OUT 0x6bc8f0128e4aaa0b3678b67bb93715fa70faf3d30 MATIC0.2278036
0xfcb8e9985c1097cb0bb7c37683de0e1e17ee7b14530c74650913e083a8625363Bury219604752021-11-30 4:18:3517 hrs 37 mins ago0x49b7d085aab4125bc2c7ca390d66ae00f4805af5OUT 0x6bc8f0128e4aaa0b3678b67bb93715fa70faf3d30 MATIC0.08377008
0x32b1e2b0cb480047dfa02ca239c3f7f7ba82e7aaa1460473cd3b72017dd0e718Bury219601702021-11-30 4:08:0517 hrs 47 mins ago0x49b7d085aab4125bc2c7ca390d66ae00f4805af5OUT 0x6bc8f0128e4aaa0b3678b67bb93715fa70faf3d30 MATIC0.01840808
0x43f3434c57273d2ed0e3c64c100d3beb54b31eaa4d54eb6067acca141efb895eBury219600452021-11-30 4:03:4717 hrs 51 mins ago0x49b7d085aab4125bc2c7ca390d66ae00f4805af5OUT 0x6bc8f0128e4aaa0b3678b67bb93715fa70faf3d30 MATIC0.24702788
0x170d6c18f77102a722c3cf394447d707ad49c73af779419a37f6808bb3f71382Bury219577002021-11-30 2:32:2719 hrs 23 mins ago0x49b7d085aab4125bc2c7ca390d66ae00f4805af5OUT 0x6bc8f0128e4aaa0b3678b67bb93715fa70faf3d30 MATIC0.00461308
0x046384a1dab5279ba574d88a6591bfac32653c2b5119e4b723dab8e4de8a14d1Bury219574892021-11-30 2:25:0919 hrs 30 mins ago0x49b7d085aab4125bc2c7ca390d66ae00f4805af5OUT 0x6bc8f0128e4aaa0b3678b67bb93715fa70faf3d30 MATIC0.28765104
0xd9751c002534d3ac33b5afe513ceea6a30e7806e18807d763b23f0dbf401544aBury219546332021-11-30 0:34:0321 hrs 21 mins ago0x49b7d085aab4125bc2c7ca390d66ae00f4805af5OUT 0x6bc8f0128e4aaa0b3678b67bb93715fa70faf3d30 MATIC0.309894
0xcaf76d32e2cd656a3792dea75b280e1b40df1c61e65bf14e84f9c5d8ffbd1814Bury219406202021-11-29 15:14:131 day 6 hrs ago0x49b7d085aab4125bc2c7ca390d66ae00f4805af5OUT 0x6bc8f0128e4aaa0b3678b67bb93715fa70faf3d30 MATIC0.0013816
0x1ebb9f5fb11f8cddbeb83edb786e6548b1b48b8b8ed6b79762f22697f52c9a5eBury219399132021-11-29 14:43:261 day 7 hrs ago0x49b7d085aab4125bc2c7ca390d66ae00f4805af5OUT 0x6bc8f0128e4aaa0b3678b67bb93715fa70faf3d30 MATIC0.10531372
0x5c2aefc1d03ef34838422f96e9816a8d81e5c718a156b69d98f9eec6ba3d60deBury219372642021-11-29 13:01:261 day 8 hrs ago0x49b7d085aab4125bc2c7ca390d66ae00f4805af5OUT 0x6bc8f0128e4aaa0b3678b67bb93715fa70faf3d30 MATIC0.26458024
0xa7c418cf5af6d80d73cd13d420a75699037eaf963076d08a8078fea318cdc6e0Bury219284582021-11-29 7:32:161 day 14 hrs ago0x49b7d085aab4125bc2c7ca390d66ae00f4805af5OUT 0x6bc8f0128e4aaa0b3678b67bb93715fa70faf3d30 MATIC0.30817604
0x752059e3201b71dc47c4c463585d7c82b4921d139702b97a46d6081975eede8cBury219277392021-11-29 7:03:141 day 14 hrs ago0x49b7d085aab4125bc2c7ca390d66ae00f4805af5OUT 0x6bc8f0128e4aaa0b3678b67bb93715fa70faf3d30 MATIC0.3040398
0x841c056ad64de5cb944278a0e7ff26c9c0c1078fc28ceadfbdc615f4a6dce3adBury219196492021-11-29 1:10:221 day 20 hrs ago0x49b7d085aab4125bc2c7ca390d66ae00f4805af5OUT 0x6bc8f0128e4aaa0b3678b67bb93715fa70faf3d30 MATIC0.19413644
[ Download CSV Export 
Latest 1 internal transaction
Parent Txn Hash Block From To Value
0x65e9a5b662458a325f49bbae42fa7e60f9781340891c255ffef12536a08d7564188624962021-09-07 22:53:5683 days 23 hrs ago 0xf8b036e508095188ab8f1f97e086bff83b37e4a20x49b7d085aab4125bc2c7ca390d66ae00f4805af5150 MATIC
[ Download CSV Export 
Loading

Contract Name:
0 MATIC

Compiler Version
0

Optimization Enabled:
0 MATIC

Other Settings:
-NA-
Block Transaction Gas Used Reward
Age Block Fee Address BC Fee Address Voting Power Jailed Incoming
Block Uncle Number Difficulty Gas Used Reward
Loading
Loading
Make sure to use the "Vote Down" button for any spammy posts, and the "Vote Up" for interesting conversations.